This is the latest recevied weather packets stored in our database for station/object K6GMW. If no packets are shown the sender has not sent any weather packets the latest 10 day(s).
| Time | Temp. | Humidity | Pressure | Rain* | Wind** | Luminosity | Snow |
|---|---|---|---|---|---|---|---|
| 1778110733 | 14.44° C | 90% | 1014.7 hPa | 0 mm | - | 14 W/m² | - |
| 1778110429 | 14.44° C | 90% | 1014.9 hPa | 0 mm | - | 16 W/m² | - |
| 1778110127 | 15° C | 91% | 1014.7 hPa | 0 mm | - | 19 W/m² | - |
| 1778109822 | 15° C | 90% | 1014.7 hPa | 0 mm | - | 23 W/m² | - |
| 1778109519 | 15° C | 91% | 1014.3 hPa | 0 mm | - | 26 W/m² | - |
| 1778109217 | 15° C | 90% | 1014.5 hPa | 0 mm | - | 21 W/m² | - |
| 1778108914 | 15° C | 90% | 1014.3 hPa | 0 mm | - | 27 W/m² | - |
| 1778108610 | 15° C | 91% | 1014.3 hPa | 0 mm | - | 27 W/m² | - |
| 1778108306 | 15° C | 91% | 1014.7 hPa | 0 mm | - | 33 W/m² | - |
| 1778108004 | 15° C | 90% | 1014.5 hPa | 0 mm | - | 30 W/m² | - |
| 1778107701 | 15° C | 90% | 1014.3 hPa | 0 mm | - | 36 W/m² | - |
| 1778107398 | 15° C | 90% | 1014.3 hPa | 0 mm | - | 42 W/m² | - |
| 1778107094 | 15.56° C | 90% | 1014.5 hPa | 0 mm | - | 33 W/m² | - |
| 1778106789 | 15.56° C | 90% | 1014.3 hPa | 0 mm | - | 45 W/m² | - |
| 1778106487 | 15.56° C | 90% | 1014.2 hPa | 0 mm | - | 51 W/m² | - |
| 1778106182 | 15.56° C | 90% | 1014 hPa | 0 mm | - | 72 W/m² | - |
| 1778105880 | 15.56° C | 90% | 1013.8 hPa | 0 mm | - | 80 W/m² | - |
| 1778105578 | 15.56° C | 91% | 1013.4 hPa | 0 mm | - | 75 W/m² | - |
| 1778105276 | 15.56° C | 90% | 1013.5 hPa | 0 mm | - | 89 W/m² | - |
| 1778104976 | 15.56° C | 92% | 1013.3 hPa | 0 mm | - | 113 W/m² | - |
| 1778104673 | 15.56° C | 91% | 1013.3 hPa | 0 mm | - | 98 W/m² | - |
| 1778104369 | 15.56° C | 91% | 1013.7 hPa | 0 mm | - | 95 W/m² | - |
| 1778104065 | 15.56° C | 91% | 1013.8 hPa | 0 mm | - | 80 W/m² | - |
| 1778103762 | 15.56° C | 91% | 1013.8 hPa | 0 mm | - | 68 W/m² | - |
| 1778103461 | 15.56° C | 91% | 1014.1 hPa | 0 mm | - | 72 W/m² | - |
* Rain latest hour (hover to see other rain measurements)
** Current wind speed in m/s (hover to see current wind gust speed)